INTELSAT 33E DEB, 61990

Orbit data source: Space-Track

INTELSAT 33E DEB, 61990 is space debris in GEO originally from a launch on Wed, 24 Aug 2016 UTC launched from the French Guiana (FRGUI). Debris objects in space refer to the collection of defunct objects orbiting the Earth. Examples of debris include non-operational satellites, rocket bodies, and fragments generated from explosions, collisions, or faulty payload assembly.

Loading next visibility...
Identifier
61990, 2016-053G
Orbit
GEO
Country
Flag of UnknownUnknown / ITSO
Related business
Manufacturer
Boeing/ES
Mission
Spacecraft
Bus & Motor
Unknown
Mass
Unknown
Launch date (UTC)
2016-08-24 (9 years ago)
Launch vehicle
Unknown
Launch site
French Guiana (FRGUI)
Object type
Payload
Rocket body
Debris
Shape & HBR
Unknown
Radar Cross Section
RCS unknown

Expand to show TLE details & history
Last TLE update: 15 hours ago

TLE from 15 hours ago
0 INTELSAT 33E DEB
1 61990U 16053G   25251.29025761 -.00000275  00000-0  00000-0 0  9992
2 61990   0.7556  71.3041 0110320 344.5435 305.1982  1.01390982  3296
Epoch: 2025-09-08T06:57Z
TLE epoch observation values (Epoch: 2025-09-08T06:57:58.257Z)
Latitude
-0.72766°
Longitude
-92.08891°
Altitude
35,212.581 km
Speed
3.106 km/s
True Right ascension
00h 00m 00s
True Declination
0° 43' 37"
Sunlit
Object was in daylight at epoch
Visualization orbit readout
Latitude
Unknown
Longitude
Unknown
Altitude
Unknown
Speed
Unknown
Apparent Right ascension
Unknown
Apparent Declination
Unknown
Sunlit
N/A
Visualization observer readout
Local Sidereal Time
13:52:43
Azimuth
Unknown
Elevation
Unknown
Doppler factor
Unknown
Orbital elements
Apogee altitude
35,938.555 km
Perigee altitude
35,015.067 km
Semi-major axis
41,854.948 km
Eccentricity
0.01103
Inclination
0.7556°
RAAN
71.3041°
Arg. of periapsis
344.5435°
True anomaly
304.15695°
Mean anomaly
305.1982°
Eccentric anomaly
304.6784°
Mean motion
0.25347 °/min
Orbital period
1,420.3 mins
BSTAR
0
Loading maneuver chart data...
Computing Atmospheric mass density...
Loading historical data...
Loading historical data...
Loading historical data...
Loading historical data...
Loading historical data...
Loading historical data...
Loading historical data...

Documentation

Showing up to 5 results
|